Latest Coastal Weather Observations for Hogan Island

IDT60701

Issued at 5:21 am EST Tuesday 4 August 2015 (issued every 10 minutes, with the page automatically refreshed every 10 minutes)

About coastal observations | Map of coastal stations | Coastal observations for TAS | Marine services | Other Formats
Station Details ID: 200838 Name: HOGAN ISLAND Lat: -39.22 Lon: 146.98 Height: 116.0 m
Data from the previous 72 hours. | See also: Recent months at Hogan Island
Date/Time
EST
Temp

°C
Wind Pressure Rain
since 9am
mm
Weather Cloud Vis
km
Sea
Height
m
Swell
Dir
 
Speed
knots
Gust
knots
hPa Trend Height
m
Period
s
Dir
04/05:00am 6.8 WSW 16 21 1019.3 - 1.0 - - - - - - -
04/04:30am 6.5 WSW 23 28 1019.3 - 1.0 - - - - - - -
04/04:29am 6.5 WSW 23 28 1019.3 - 1.0 - - - - - - -
04/04:00am 7.1 W 22 26 1019.2 - 1.0 - - - - - - -
04/03:30am 7.1 W 22 27 1019.3 - 1.0 - - - - - - -
04/03:00am 7.1 W 21 25 1019.8 - 1.0 - - - - - - -
04/02:30am 6.8 W 19 23 1019.6 - 1.0 - - - - - - -
04/02:12am 7.3 WSW 19 29 1019.6 - 1.0 - - - - - - -
04/02:00am 7.2 WSW 17 22 1019.7 - 1.0 - - - - - - -
04/01:30am 7.4 W 22 28 1019.7 - 1.0 - - - - - - -
04/01:00am 6.7 WSW 19 22 1020.0 - 1.0 - - - - - - -
04/12:42am 6.6 WSW 20 33 1020.1 - 1.0 - - - - - - -
04/12:30am 7.0 WSW 30 36 1020.1 - 1.0 - - - - - - -
04/12:00am 7.4 WSW 24 28 1020.0 - 1.0 - - - - - - -
 
Date/Time
EST
Temp

°C
Wind Pressure Rain
since 9am
mm
Weather Cloud Vis
km
Sea
Height
m
Swell
Dir
 
Speed
knots
Gust
knots
hPa Trend Height
m
Period
s
Dir
03/11:30pm 7.6 WSW 22 28 1020.2 - 1.0 - - - - - - -
03/11:00pm 7.5 WSW 20 26 1019.9 - 1.0 - - - - - - -
03/10:52pm 7.2 WSW 21 31 1020.1 - 1.0 - - - - - - -
03/10:30pm 7.0 WSW 26 34 1020.0 - 1.0 - - - - - - -
03/10:17pm 6.7 W 24 32 1020.1 - 1.0 - - - - - - -
03/10:00pm 7.6 SW 25 29 1020.2 - 1.0 - - - - - - -
03/09:30pm 7.7 WSW 27 31 1020.0 - 1.0 - - - - - - -
03/09:00pm 7.8 WSW 27 31 1020.0 - 1.0 - - - - - - -
03/08:30pm 7.7 WSW 28 35 1019.3 - 1.0 - - - - - - -
03/08:00pm 7.5 WSW 31 37 1019.0 - 1.0 - - - - - - -
03/07:30pm 7.5 WSW 34 40 1018.8 - 1.0 - - - - - - -
03/07:00pm 7.7 WSW 31 38 1018.4 - 1.0 - - - - - - -
03/06:51pm 7.5 WSW 33 43 1018.3 - 1.0 - - - - - - -
03/06:30pm 7.4 WSW 33 40 1017.7 - 1.0 - - - - - - -
03/06:00pm 7.2 WSW 33 44 1017.4 - 1.0 - - - - - - -
03/05:58pm 7.5 WSW 34 44 1017.1 - 1.0 - - - - - - -
03/05:30pm 7.3 WSW 37 43 1016.3 - 1.0 - - - - - - -
03/05:08pm 6.6 WSW 36 47 1016.1 - 1.0 - - - - - - -
03/05:00pm 7.5 W 34 39 1016.0 - 1.0 - - - - - - -
03/04:30pm 7.5 WSW 36 43 1015.9 - 1.0 - - - - - - -
03/04:00pm 7.9 WSW 39 46 1015.4 - 1.0 - - - - - - -
03/03:30pm 7.9 WSW 38 44 1015.0 - 1.0 - - - - - - -
03/03:00pm 7.5 WSW 38 47 1014.7 - 1.0 - - - - - - -
03/02:30pm 7.9 WSW 38 44 1014.0 - 1.0 - - - - - - -
03/02:00pm 8.5 WSW 38 47 1013.4 - 1.0 - - - - - - -
03/01:40pm 7.2 WSW 33 44 1013.1 - 1.0 - - - - - - -
03/01:30pm 6.6 WSW 35 42 1013.4 - 1.0 - - - - - - -
03/01:20pm 5.2 SW 35 45 1013.4 - 1.0 - - - - - - -
03/01:18pm 5.2 SW 39 45 1013.4 - 1.0 - - - - - - -
03/01:07pm 7.1 W 42 56 1012.9 - 1.0 - - - - - - -
03/01:00pm 5.7 W 46 61 1012.1 - 1.0 - - - - - - -
03/12:49pm 7.6 WSW 42 52 1012.7 - 1.0 - - - - - - -
03/12:42pm 7.9 WSW 46 52 1012.4 - 1.0 - - - - - - -
03/12:33pm 7.9 W 35 45 1012.6 - 1.0 - - - - - - -
03/12:30pm 7.1 W 36 40 1012.7 - 1.0 - - - - - - -
03/12:15pm 5.7 W 35 46 1012.7 - 1.0 - - - - - - -
03/12:03pm 5.7 WSW 47 57 1012.7 - 1.0 - - - - - - -
03/12:00pm 6.1 WSW 48 57 1012.5 - 1.0 - - - - - - -
03/11:30am 5.2 WSW 49 59 1011.3 - 1.0 - - - - - - -
03/11:00am 6.7 WSW 45 57 1011.0 - 1.0 - - - - - - -
03/10:30am 3.9 WSW 43 53 1011.0 - 0.8 - - - - - - -
03/10:00am 6.2 W 42 52 1009.9 - 0.0 - - - - - - -
03/09:56am 6.4 W 42 52 1009.8 - 0.0 - - - - - - -
03/09:43am 4.8 WSW 43 65 1009.9 - 0.0 - - - - - - -
03/09:40am 4.2 WSW 55 65 1009.8 - 0.0 - - - - - - -
03/09:37am 5.3 WSW 58 65 1009.0 - 0.0 - - - - - - -
03/09:32am 6.4 W 46 59 1009.3 - 0.0 - - - - - - -
03/09:30am 6.2 W 47 53 1009.5 - 0.0 - - - - - - -
03/09:14am 5.3 WSW 44 54 1009.3 - 0.0 - - - - - - -
03/09:03am 5.1 WSW 40 63 1009.5 - 0.0 - - - - - - -
03/09:00am 4.6 WSW 52 64 1009.4 - 16.0 - - - - - - -
03/08:58am 4.4 WSW 54 64 1009.0 - 16.0 - - - - - - -
03/08:54am 5.2 WSW 57 64 1008.5 - 16.0 - - - - - - -
03/08:53am 5.3 WSW 44 64 1008.6 - 16.0 - - - - - - -
03/08:30am 4.7 W 44 52 1008.8 - 15.8 - - - - - - -
03/08:00am 3.6 WSW 42 70 1008.3 - 15.8 - - - - - - -
03/07:58am 3.4 WSW 43 70 1008.3 - 15.8 - - - - - - -
03/07:53am 3.2 WSW 58 70 1007.6 - 15.6 - - - - - - -
03/07:52am 3.7 WSW 41 70 1007.6 - 15.4 - - - - - - -
03/07:51am 4.9 WSW 38 57 1008.1 - 15.4 - - - - - - -
03/07:33am 5.7 WSW 47 57 1007.4 - 15.2 - - - - - - -
03/07:30am 6.0 WSW 49 57 1007.0 - 15.2 - - - - - - -
03/07:00am 6.4 WSW 47 59 1006.3 - 15.2 - - - - - - -
03/06:30am 6.5 WSW 49 61 1005.1 - 15.0 - - - - - - -
03/06:00am 7.6 W 48 58 1004.5 - 15.0 - - - - - - -
03/05:30am 6.4 W 49 71 1004.1 - 15.0 - - - - - - -
03/05:26am 6.0 W 61 71 1003.6 - 15.0 - - - - - - -
03/05:24am 5.9 W 64 71 1003.1 - 15.0 - - - - - - -
03/05:22am 6.3 W 52 71 1003.6 - 15.0 - - - - - - -
03/05:04am 6.0 WSW 46 56 1004.5 - 15.0 - - - - - - -
03/05:00am 5.8 WSW 47 56 1004.2 - 15.0 - - - - - - -
03/04:32am 6.0 W 51 63 1003.4 - 14.8 - - - - - - -
03/04:30am 5.8 W 52 66 1003.5 - 14.8 - - - - - - -
03/04:26am 5.7 W 53 80 1003.4 - 14.8 - - - - - - -
03/04:00am 6.8 W 44 53 1002.9 - 14.2 - - - - - - -
03/03:56am 7.0 W 41 56 1003.2 - 14.2 - - - - - - -
03/03:30am 6.3 W 53 69 1002.8 - 13.2 - - - - - - -
03/03:23am 5.9 W 51 69 1002.1 - 12.8 - - - - - - -
03/03:00am 6.9 W 45 53 1002.8 - 11.4 - - - - - - -
03/02:30am 6.9 W 50 60 1003.0 - 11.0 - - - - - - -
03/02:01am 7.8 WNW 50 63 1002.3 - 10.2 - - - - - - -
03/02:00am 7.8 WNW 50 58 1002.6 - 10.2 - - - - - - -
03/01:30am 6.9 W 52 67 1003.2 - 9.8 - - - - - - -
03/01:00am 7.0 W 55 65 1002.3 - 9.0 - - - - - - -
03/12:58am 6.6 W 55 65 1002.4 - 9.0 - - - - - - -
03/12:56am 6.7 W 54 62 1002.6 - 8.8 - - - - - - -
03/12:51am 6.9 WNW 44 62 1002.9 - 8.6 - - - - - - -
03/12:32am 7.4 WNW 42 52 1003.4 - 7.6 - - - - - - -
03/12:30am 7.3 WNW 43 52 1003.3 - 7.2 - - - - - - -
03/12:00am 8.7 WNW 47 58 1003.2 - 5.2 - - - - - - -
 
Date/Time
EST
Temp

°C
Wind Pressure Rain
since 9am
mm
Weather Cloud Vis
km
Sea
Height
m
Swell
Dir
 
Speed
knots
Gust
knots
hPa Trend Height
m
Period
s
Dir
02/11:57pm 8.9 WNW 48 58 1003.1 - 5.2 - - - - - - -
02/11:30pm 8.7 WNW 45 52 1003.5 - 5.2 - - - - - - -
02/11:04pm 8.8 WNW 41 52 1003.6 - 4.8 - - - - - - -
02/11:00pm 8.6 WNW 39 45 1004.2 - 4.8 - - - - - - -
02/10:34pm 6.9 W 54 74 1003.4 - 4.8 - - - - - - -
02/10:30pm 6.7 W 64 74 1003.0 - 4.6 - - - - - - -
02/10:29pm 6.6 W 64 74 1002.7 - 4.4 - - - - - - -
02/10:27pm 6.6 W 64 71 1002.9 - 4.4 - - - - - - -
02/10:26pm 6.7 WNW 48 68 1002.9 - 4.4 - - - - - - -
02/10:00pm 9.6 WNW 45 57 1004.2 - 4.2 - - - - - - -
02/09:30pm 9.5 WNW 44 53 1004.2 - 4.2 - - - - - - -
02/09:00pm 8.7 W 44 51 1004.8 - 4.0 - - - - - - -
02/08:58pm 8.6 W 44 54 1004.9 - 4.0 - - - - - - -
02/08:30pm 9.1 W 34 41 1005.3 - 3.4 - - - - - - -
02/08:00pm 9.0 WNW 41 48 1005.4 - 3.4 - - - - - - -
02/07:30pm 8.3 W 45 56 1005.4 - 3.2 - - - - - - -
02/07:03pm 7.8 W 41 51 1005.5 - 3.2 - - - - - - -
02/07:00pm 8.0 W 44 52 1005.4 - 3.2 - - - - - - -
02/06:30pm 7.5 W 35 49 1005.2 - 2.6 - - - - - - -
02/06:00pm 8.2 W 38 43 1004.9 - 2.2 - - - - - - -
02/05:30pm 8.2 W 38 46 1004.7 - 2.2 - - - - - - -
02/05:00pm 8.1 W 41 46 1004.7 - 2.0 - - - - - - -
02/04:30pm 8.0 W 36 42 1004.6 - 2.0 - - - - - - -
02/04:00pm 8.0 W 39 57 1004.6 - 1.8 - - - - - - -
02/03:59pm 7.9 W 40 57 1004.5 - 1.8 - - - - - - -
02/03:54pm 7.5 W 45 69 1004.1 - 1.0 - - - - - - -
02/03:30pm 11.2 WNW 48 58 1002.4 - 0.0 - - - - - - -
02/03:00pm 11.3 WNW 45 53 1002.2 - 0.0 - - - - - - -
02/02:31pm 11.0 WNW 44 54 1003.2 - 0.0 - - - - - - -
02/02:30pm 11.0 WNW 45 54 1003.0 - 0.0 - - - - - - -
02/02:00pm 10.8 WNW 44 51 1003.4 - 0.0 - - - - - - -
02/01:30pm 10.8 WNW 39 45 1003.9 - 0.0 - - - - - - -
02/01:00pm 10.8 WNW 44 50 1004.2 - 0.0 - - - - - - -
02/12:54pm 10.7 WNW 44 50 1004.0 - 0.0 - - - - - - -
02/12:30pm 10.3 WNW 32 38 1005.5 - 0.0 - - - - - - -
02/12:00pm 10.1 WNW 38 44 1006.1 - 0.0 - - - - - - -
02/11:32am 9.7 NW 29 39 1007.2 - 0.0 - - - - - - -
02/11:30am 10.2 NW 26 37 1007.4 - 0.0 - - - - - - -
02/11:00am 9.3 WNW 38 44 1007.3 - 0.0 - - - - - - -
02/10:30am 9.1 WNW 39 44 1007.5 - 0.0 - - - - - - -
02/10:00am 8.8 WNW 35 41 1008.0 - 0.0 - - - - - - -
02/09:30am 8.4 WNW 35 41 1008.3 - 0.0 - - - - - - -
02/09:00am 8.2 WNW 35 40 1008.5 - 0.0 - - - - - - -
02/08:30am 8.3 WNW 30 37 1009.1 - 0.0 - - - - - - -
02/08:00am 8.3 WNW 33 39 1009.5 - 0.0 - - - - - - -
02/07:30am 8.3 WNW 32 36 1009.5 - 0.0 - - - - - - -
02/07:00am 8.4 WNW 27 33 1009.6 - 0.0 - - - - - - -
02/06:30am 8.5 WNW 26 30 1009.8 - 0.0 - - - - - - -
02/06:00am 8.5 WNW 25 29 1009.9 - 0.0 - - - - - - -
02/05:30am 8.6 WNW 25 30 1010.0 - 0.0 - - - - - - -
02/05:00am 8.6 WNW 28 33 1010.0 - 0.0 - - - - - - -
02/04:30am 8.6 WNW 28 32 1010.3 - 0.0 - - - - - - -
02/04:00am 8.6 WNW 23 29 1011.0 - 0.0 - - - - - - -
02/03:30am 8.9 WNW 25 31 1011.4 - 0.0 - - - - - - -
02/03:00am 8.9 WNW 25 28 1011.8 - 0.0 - - - - - - -
02/02:30am 9.0 WNW 24 26 1012.0 - 0.0 - - - - - - -
02/02:00am 8.9 WNW 24 27 1012.2 - 0.0 - - - - - - -
02/01:30am 9.0 WNW 23 28 1012.6 - 0.0 - - - - - - -
02/01:00am 8.9 WNW 22 25 1012.8 - 0.0 - - - - - - -
02/12:30am 8.9 WNW 23 26 1012.9 - 0.0 - - - - - - -
02/12:00am 8.8 WNW 22 26 1013.3 - 0.0 - - - - - - -
 
Date/Time
EST
Temp

°C
Wind Pressure Rain
since 9am
mm
Weather Cloud Vis
km
Sea
Height
m
Swell
Dir
 
Speed
knots
Gust
knots
hPa Trend Height
m
Period
s
Dir
01/11:30pm 9.1 WNW 25 31 1013.3 - 0.0 - - - - - - -
01/11:00pm 9.0 WNW 25 31 1013.2 - 0.0 - - - - - - -
01/10:30pm 8.8 WNW 28 31 1013.3 - 0.0 - - - - - - -
01/10:00pm 9.2 WNW 21 26 1013.8 - 0.0 - - - - - - -
01/09:30pm 9.2 WNW 22 27 1013.8 - 0.0 - - - - - - -
01/09:00pm 9.2 WNW 22 27 1013.9 - 0.0 - - - - - - -
01/08:30pm 9.2 WNW 20 25 1013.9 - 0.0 - - - - - - -
01/08:00pm 9.4 WNW 22 30 1014.0 - 0.0 - - - - - - -
01/07:30pm 9.1 WNW 19 24 1013.8 - 0.0 - - - - - - -
01/07:00pm 8.5 WNW 21 25 1013.8 - 0.0 - - - - - - -
01/06:33pm 9.4 W 25 36 1013.2 - 0.0 - - - - - - -
01/06:30pm 9.4 W 24 28 1013.5 - 0.0 - - - - - - -
01/06:00pm 9.4 W 26 31 1013.2 - 0.0 - - - - - - -
01/05:30pm 9.2 W 27 33 1012.3 - 0.0 - - - - - - -
01/05:00pm 9.3 W 26 32 1012.1 - 0.0 - - - - - - -
01/04:30pm 9.4 W 26 30 1012.2 - 0.0 - - - - - - -
01/04:00pm 9.3 W 29 36 1011.9 - 0.0 - - - - - - -
01/03:30pm 9.8 W 29 34 1011.4 - 0.0 - - - - - - -
01/03:00pm 10.3 W 29 34 1011.4 - 0.0 - - - - - - -
01/02:30pm 10.7 W 27 32 1011.5 - 0.0 - - - - - - -
01/02:00pm 10.5 W 31 36 1010.9 - 0.0 - - - - - - -
01/01:30pm 10.5 WSW 35 40 1010.3 - 0.0 - - - - - - -
01/01:00pm 10.6 WSW 39 46 1009.6 - 0.0 - - - - - - -
01/12:53pm 10.3 W 36 46 1009.6 - 0.0 - - - - - - -
01/12:30pm 11.0 W 36 42 1009.8 - 0.0 - - - - - - -
01/12:22pm 10.7 W 35 45 1010.1 - 0.0 - - - - - - -
01/12:00pm 10.4 W 36 41 1010.1 - 0.0 - - - - - - -
01/11:30am 9.8 W 37 43 1009.7 - 0.0 - - - - - - -
01/11:00am 8.9 W 30 36 1010.0 - 0.0 - - - - - - -
01/10:30am 9.1 W 37 49 1009.3 - 0.0 - - - - - - -
01/10:21am 9.0 W 36 49 1009.2 - 0.0 - - - - - - -
01/10:00am 8.9 W 37 42 1008.7 - 0.0 - - - - - - -
01/09:30am 8.5 WSW 38 45 1008.2 - 0.0 - - - - - - -
01/09:00am 8.8 W 35 43 1007.7 - 1.0 - - - - - - -
01/08:30am 9.4 W 40 49 1006.8 - 0.8 - - - - - - -
01/08:00am 11.2 WNW 47 53 1004.5 - 0.6 - - - - - - -
01/07:30am 11.9 WNW 47 53 1004.2 - 0.6 - - - - - - -
01/07:04am 11.8 NW 29 39 1004.4 - 0.6 - - - - - - -
01/07:00am 11.6 NW 30 39 1004.5 - 0.6 - - - - - - -
01/06:54am 11.4 NW 30 38 1004.4 - 0.6 - - - - - - -
01/06:32am 10.6 NNW 18 28 1004.5 - 0.6 - - - - - - -
01/06:30am 10.4 NNW 18 25 1004.6 - 0.6 - - - - - - -
01/06:00am 10.4 NNW 17 23 1005.0 - 0.0 - - - - - - -
01/05:30am 10.4 N 21 29 1004.9 - 0.0 - - - - - - -

Other Formats:

Comma delimited format used in spreadsheet applications
http://www.bom.gov.au/fwo/IDT60701/IDT60701.94949.axf

JavaScript Object Notation format (JSON) in row-major order
http://www.bom.gov.au/fwo/IDT60701/IDT60701.94949.json